CW5404 Weather Reports


Display with metric or nautical units.
time (UTC)temp
F
wind
direction
speed
MPH
gust
MPH
rain 1hr
in
rain 24hr
in
rain mn
in
humidity
%
barometer
mb
20260901235957 65 171 1.0 4.0 0.00 0.00 0.00 70 1011.1
20260901234956 65 165 2.0 4.0 0.00 0.00 0.00 69 1011.0
20260901234456 65 331 0.0 3.0 0.00 0.00 0.00 69 1011.0
20260901233957 65 355 2.0 5.0 0.00 0.00 0.00 68 1011.1
20260901233457 65 224 2.0 5.0 0.00 0.00 0.00 68 1011.1
20260901232956 66 144 2.0 4.0 0.00 0.00 0.00 67 1011.1
20260901232456 66 336 2.0 6.0 0.00 0.00 0.00 66 1011.0
20260901231956 66 174 2.0 6.0 0.00 0.00 0.00 65 1011.0
20260901231457 66 55 1.0 4.0 0.00 0.00 0.00 63 1011.0
20260901230956 66 192 1.0 5.0 0.00 0.00 0.00 63 1011.0
20260901225956 66 227 1.0 4.0 0.00 0.00 0.00 64 1011.0
20260901225527 66 211 3.0 3.0 0.00 0.00 0.00 64 1011.0
20260901224456 66 304 0.0 3.0 0.00 0.00 0.00 63 1011.0
20260901223956 67 309 0.0 4.0 0.00 0.00 0.00 63 1011.0
20260901223456 67 126 0.0 5.0 0.00 0.00 0.00 63 1011.0
20260901222956 67 216 4.0 7.0 0.00 0.00 0.00 62 1011.0
20260901222456 67 248 2.0 7.0 0.00 0.00 0.00 61 1011.0
20260901221956 67 213 4.0 6.0 0.00 0.00 0.00 61 1011.0
20260901221456 68 360 1.0 6.0 0.00 0.00 0.00 60 1011.0
20260901220956 67 220 2.0 7.0 0.00 0.00 0.00 60 1011.0
20260901220457 67 329 1.0 7.0 0.00 0.00 0.00 60 1011.0
20260901215455 68 216 2.0 6.0 0.00 0.00 0.00 60 1010.9
20260901214455 68 190 0.0 6.0 0.00 0.00 0.00 61 1010.9
20260901213955 68 193 3.0 6.0 0.00 0.00 0.00 60 1010.7
20260901213455 68 213 4.0 4.0 0.00 0.00 0.00 60 1010.7
20260901212956 68 254 0.0 4.0 0.00 0.00 0.00 60 1010.7
20260901212456 68 320 0.0 4.0 0.00 0.00 0.00 60 1010.9
20260901211956 68 207 3.0 4.0 0.00 0.00 0.00 60 1010.9
20260901211456 68 295 1.0 8.0 0.00 0.00 0.00 61 1010.9
20260901210956 68 149 1.0 8.0 0.00 0.00 0.00 60 1010.8
20260901210456 68 214 5.0 7.0 0.00 0.00 0.00 58 1010.8
20260901205956 68 238 1.0 6.0 0.00 0.00 0.00 58 1010.8
20260901205455 69 360 2.0 3.0 0.00 0.00 0.00 58 1010.9
20260901204956 69 360 1.0 3.0 0.00 0.00 0.00 57 1010.9
20260901204456 69 360 2.0 4.0 0.00 0.00 0.00 58 1010.9
20260901203955 68 360 0.0 6.0 0.00 0.00 0.00 59 1010.9
20260901203456 68 360 3.0 6.0 0.00 0.00 0.00 60 1010.9
20260901202455 67 189 1.0 5.0 0.00 0.00 0.00 61 1011.0
20260901201955 67 194 2.0 7.0 0.00 0.00 0.00 60 1011.0
20260901201456 67 194 2.0 7.0 0.00 0.00 0.00 62 1011.0
20260901200455 67 163 2.0 10.0 0.00 0.00 0.00 62 1011.0
20260901195955 67 224 5.0 10.0 0.00 0.00 0.00 61 1011.0
20260901194955 69 200 1.0 5.0 0.00 0.00 0.00 59 1011.0
20260901194455 70 228 1.0 5.0 0.00 0.00 0.00 58 1011.1
20260901193955 69 51 0.0 7.0 0.00 0.00 0.00 60 1011.1
20260901193455 69 360 4.0 7.0 0.00 0.00 0.00 59 1011.1
20260901192955 68 360 2.0 7.0 0.00 0.00 0.00 62 1011.1
20260901192455 67 360 5.0 7.0 0.00 0.00 0.00 63 1011.4
20260901191955 68 360 7.0 7.0 0.00 0.00 0.00 62 1011.4
20260901191455 68 360 2.0 8.0 0.00 0.00 0.00 63 1011.4
20260901190955 67 360 5.0 8.0 0.00 0.00 0.00 63 1011.5
20260901190455 67 360 6.0 10.0 0.00 0.00 0.00 65 1011.5
20260901185955 66 360 2.0 10.0 0.00 0.00 0.00 67 1011.5
20260901185454 66 360 5.0 7.0 0.00 0.00 0.00 68 1011.6
20260901184955 66 360 2.0 6.0 0.00 0.00 0.00 68 1011.6
20260901183955 64 360 3.0 7.0 0.00 0.00 0.00 70 1011.8
20260901183455 64 360 3.0 9.0 0.00 0.00 0.00 71 1011.8
20260901182954 64 360 6.0 9.0 0.00 0.00 0.00 72 1011.8
20260901182454 64 360 9.0 9.0 0.00 0.00 0.00 72 1011.7
20260901175954 64 195 4.0 7.0 0.00 0.00 0.00 73 1011.6
20260901175454 65 254 3.0 7.0 0.00 0.00 0.00 72 1011.6
20260901174954 65 196 1.0 6.0 0.00 0.00 0.00 71 1011.6
20260901174455 65 195 3.0 7.0 0.00 0.00 0.00 70 1011.6
20260901173954 65 189 3.0 7.0 0.00 0.00 0.00 70 1011.5
20260901173455 66 224 5.0 7.0 0.00 0.00 0.00 69 1011.6
20260901172955 66 205 0.0 9.0 0.00 0.00 0.00 70 1011.6
20260901172454 66 191 3.0 9.0 0.00 0.00 0.00 69 1011.6
20260901171955 66 161 3.0 4.0 0.00 0.00 0.00 69 1011.6
20260901171454 66 360 2.0 6.0 0.00 0.00 0.00 73 1011.6
20260901170954 64 360 0.0 6.0 0.00 0.00 0.00 74 1011.5
20260901170454 64 360 2.0 6.0 0.00 0.00 0.00 75 1011.5
20260901165954 64 360 3.0 6.0 0.00 0.00 0.00 76 1011.5
20260901165454 63 360 3.0 6.0 0.00 0.00 0.00 77 1011.6
20260901164454 63 360 1.0 5.0 0.00 0.00 0.00 78 1011.6
20260901163454 63 360 1.0 5.0 0.00 0.00 0.00 79 1011.7
20260901162454 62 360 4.0 5.0 0.00 0.00 0.00 81 1011.9
20260901161954 62 360 3.0 5.0 0.00 0.00 0.00 82 1011.9
20260901161454 62 360 1.0 5.0 0.00 0.00 0.00 82 1011.9
20260901160954 62 360 2.0 5.0 0.00 0.00 0.00 82 1011.9
20260901160454 61 360 2.0 3.0 0.00 0.00 0.00 83 1011.8
20260901155454 61 360 0.0 1.0 0.00 0.00 0.00 84 1011.9
20260901154454 61 360 1.0 3.0 0.00 0.00 0.00 85 1011.9
20260901153954 60 360 0.0 3.0 0.00 0.00 0.00 86 1011.8
20260901153454 60 360 0.0 3.0 0.00 0.00 0.00 86 1011.8
20260901152954 60 360 0.0 3.0 0.00 0.00 0.00 86 1011.8
20260901152454 60 360 1.0 4.0 0.00 0.00 0.00 86 1011.8
20260901151953 60 360 0.0 4.0 0.00 0.00 0.00 86 1011.8
20260901151453 60 360 3.0 4.0 0.00 0.00 0.00 86 1011.8
20260901150953 60 360 3.0 3.0 0.00 0.00 0.00 86 1011.7
20260901150453 59 360 0.0 2.0 0.00 0.00 0.00 86 1011.7
20260901145953 59 360 1.0 2.0 0.00 0.00 0.00 87 1011.7
20260901145454 59 360 2.0 2.0 0.00 0.00 0.00 87 1011.6
20260901144954 58 360 0.0 0.0 0.00 0.00 0.00 87 1011.6
20260901144453 58 360 0.0 0.0 0.00 0.00 0.00 88 1011.6
20260901143954 58 360 0.0 0.0 0.00 0.00 0.00 88 1011.7
20260901143453 57 360 0.0 0.0 0.00 0.00 0.00 88 1011.7
20260901142953 57 360 0.0 0.0 0.00 0.00 0.00 88 1011.7
20260901142454 57 346 0.0 0.0 0.00 0.00 0.00 88 1011.5
20260901141953 57 350 0.0 0.0 0.00 0.00 0.00 89 1011.5
20260901141453 56 355 0.0 0.0 0.00 0.00 0.00 89 1011.5
20260901140953 56 355 0.0 0.0 0.00 0.00 0.00 89 1011.4
20260901135953 56 355 0.0 0.0 0.00 0.00 0.00 89 1011.4
20260901135453 56 355 0.0 0.0 0.00 0.00 0.00 89 1011.2
20260901134953 56 355 0.0 0.0 0.00 0.00 0.00 89 1011.2
20260901134453 56 355 0.0 0.0 0.00 0.00 0.00 89 1011.2
20260901133953 56 355 0.0 0.0 0.00 0.00 0.00 89 1011.2
20260901133453 56 355 0.0 0.0 0.00 0.00 0.00 90 1011.2
20260901132953 56 355 0.0 0.0 0.00 0.00 0.00 90 1011.2
20260901132453 56 355 0.0 0.0 0.00 0.00 0.00 90 1011.2
20260901131953 56 355 0.0 0.0 0.00 0.00 0.00 90 1011.2
20260901131453 55 355 0.0 0.0 0.00 0.00 0.00 90 1011.2
20260901130953 55 355 0.0 0.0 0.00 0.00 0.00 90 1011.2
20260901130453 55 355 0.0 0.0 0.00 0.00 0.00 90 1011.2
20260901125953 55 355 0.0 0.0 0.00 0.00 0.00 90 1011.2
20260901125453 55 355 0.0 0.0 0.00 0.00 0.00 91 1011.2
20260901124952 55 355 0.0 0.0 0.00 0.00 0.00 91 1011.2
20260901123453 55 355 0.0 0.0 0.00 0.00 0.00 91 1011.2
20260901122953 54 355 0.0 0.0 0.00 0.00 0.00 91 1011.2
20260901122452 54 355 0.0 0.0 0.00 0.00 0.00 91 1011.2
20260901121953 54 355 0.0 0.0 0.00 0.00 0.00 91 1011.2
20260901121453 54 355 0.0 0.0 0.00 0.00 0.00 91 1011.2
20260901120452 54 355 0.0 0.0 0.00 0.00 0.00 91 1011.2
20260901115952 54 355 0.0 0.0 0.00 0.00 0.00 91 1011.2
20260901115453 54 355 0.0 0.0 0.00 0.00 0.00 92 1011.2
20260901114952 54 355 0.0 0.0 0.00 0.00 0.00 92 1011.2
20260901114452 54 360 0.0 0.0 0.00 0.00 0.00 92 1011.2
20260901113952 53 360 0.0 0.0 0.00 0.00 0.00 92 1011.1
20260901112952 53 360 0.0 0.0 0.00 0.00 0.00 92 1011.1
20260901112452 53 360 0.0 0.0 0.00 0.00 0.00 92 1010.9
20260901111452 53 360 0.0 0.0 0.00 0.00 0.00 91 1010.9
20260901110452 53 360 0.0 0.0 0.00 0.00 0.00 91 1010.9
20260901105953 53 360 0.0 0.0 0.00 0.00 0.00 91 1010.9
20260901104952 53 360 0.0 0.0 0.00 0.00 0.00 90 1010.8
20260901104452 53 360 0.0 0.0 0.00 0.00 0.00 90 1010.8
20260901103952 53 360 0.0 0.0 0.00 0.00 0.00 90 1010.8
20260901102952 53 360 0.0 0.0 0.00 0.00 0.00 89 1010.8
20260901102452 53 360 0.0 0.0 0.00 0.00 0.00 89 1010.9
20260901101952 53 360 0.0 0.0 0.00 0.00 0.00 89 1010.9
20260901101452 53 360 0.0 0.0 0.00 0.00 0.00 89 1010.9
20260901100952 53 360 0.0 0.0 0.00 0.00 0.00 89 1010.8
20260901100452 53 360 0.0 0.0 0.00 0.00 0.00 89 1010.8
20260901095951 53 360 0.0 0.0 0.00 0.00 0.00 89 1010.8
20260901094952 54 360 0.0 0.0 0.00 0.00 0.00 89 1010.7
20260901093951 54 360 0.0 0.0 0.00 0.00 0.00 89 1010.9
20260901093451 54 360 0.0 0.0 0.00 0.00 0.00 89 1010.9
20260901092952 54 360 0.0 0.0 0.00 0.00 0.00 88 1010.9
20260901092451 54 360 0.0 0.0 0.00 0.00 0.00 88 1010.8
20260901091951 54 360 0.0 0.0 0.00 0.00 0.00 88 1010.8
20260901091451 54 360 0.0 0.0 0.00 0.00 0.00 88 1010.8
20260901090951 54 360 0.0 0.0 0.00 0.00 0.00 87 1010.6
20260901090451 54 360 0.0 0.0 0.00 0.00 0.00 87 1010.6
20260901085951 55 360 0.0 0.0 0.00 0.00 0.00 87 1010.6
20260901085451 55 360 0.0 0.0 0.00 0.00 0.00 87 1010.5
20260901084951 55 360 0.0 0.0 0.00 0.00 0.00 87 1010.5
20260901084451 55 360 0.0 0.0 0.00 0.00 0.00 87 1010.5
20260901083451 55 360 0.0 0.0 0.00 0.00 0.00 86 1010.4
20260901082952 56 360 0.0 0.0 0.00 0.00 0.00 86 1010.4
20260901082451 56 360 0.0 0.0 0.00 0.00 0.00 86 1010.5
20260901081951 56 360 0.0 0.0 0.00 0.00 0.00 86 1010.5
20260901081451 56 360 0.0 0.0 0.00 0.00 0.00 86 1010.5
20260901080951 56 360 0.0 0.0 0.00 0.00 0.00 85 1010.4
20260901080451 56 360 0.0 0.0 0.00 0.00 0.00 85 1010.4
20260901075951 57 360 0.0 0.0 0.00 0.00 0.00 85 1010.4
20260901074951 57 360 0.0 0.0 0.00 0.00 0.00 84 1010.3
20260901074451 57 360 0.0 0.0 0.00 0.00 0.00 84 1010.3
20260901073951 57 360 0.0 0.0 0.00 0.00 0.00 84 1010.2
20260901073451 58 360 0.0 0.0 0.00 0.00 0.00 84 1010.3
20260901072951 58 355 0.0 0.0 0.00 0.00 0.00 84 1010.3
20260901072451 58 274 0.0 0.0 0.00 0.00 0.00 83 1010.1
20260901071951 58 274 0.0 0.0 0.00 0.00 0.00 83 1010.1
20260901071451 58 274 0.0 0.0 0.00 0.00 0.00 82 1010.1
20260901070951 58 256 0.0 0.0 0.00 0.00 0.00 82 1010.0
20260901070450 58 256 0.0 0.0 0.00 0.00 0.00 81 1010.0
20260901065450 59 256 0.0 0.0 0.00 0.00 0.00 81 1009.7
20260901064950 59 256 0.0 0.0 0.00 0.00 0.00 80 1009.7
20260901064451 59 256 0.0 0.0 0.00 0.00 0.00 81 1009.7
20260901063951 59 256 0.0 0.0 0.00 0.00 0.00 80 1009.7
20260901062951 60 231 0.0 0.0 0.00 0.00 0.00 80 1009.7
20260901062450 60 308 0.0 0.0 0.00 0.00 0.00 79 1009.6
20260901061951 60 308 0.0 0.0 0.00 0.00 0.00 79 1009.6
20260901061450 60 311 0.0 0.0 0.00 0.00 0.00 79 1009.6
20260901060950 60 311 0.0 2.0 0.00 0.00 0.00 78 1009.5
20260901055951 60 227 0.0 3.0 0.00 0.00 0.00 78 1009.5
20260901055450 61 230 3.0 3.0 0.00 0.00 0.00 77 1009.4
20260901054950 61 270 0.0 3.0 0.00 0.00 0.00 77 1009.4
20260901054450 61 244 0.0 3.0 0.00 0.00 0.00 77 1009.4
20260901053950 61 217 1.0 5.0 0.00 0.00 0.00 76 1009.3
20260901053450 61 218 1.0 5.0 0.00 0.00 0.00 76 1009.3
20260901052950 62 234 0.0 4.0 0.00 0.00 0.00 76 1009.3
20260901052450 62 151 0.0 1.0 0.00 0.00 0.00 75 1009.1
20260901051950 62 243 0.0 3.0 0.00 0.00 0.00 74 1009.1
20260901051450 63 243 0.0 3.0 0.00 0.00 0.00 73 1009.1
20260901050950 63 241 0.0 2.0 0.00 0.00 0.00 73 1008.9
20260901050450 63 209 0.0 4.0 0.00 0.00 0.00 72 1008.9
20260901045950 64 209 0.0 4.0 0.00 0.00 0.00 71 1009.0
20260901045450 64 178 1.0 1.0 0.00 0.00 0.00 70 1008.9
20260901044950 64 178 0.0 3.0 0.00 0.00 0.00 68 1008.9
20260901044450 65 178 0.0 3.0 0.00 0.00 0.00 66 1008.9
20260901043950 65 179 1.0 3.0 0.00 0.00 0.00 65 1008.9
20260901043450 65 170 0.0 6.0 0.00 0.00 0.00 65 1008.9
20260901042950 66 175 3.0 6.0 0.00 0.00 0.00 66 1008.9
20260901042450 66 214 4.0 4.0 0.00 0.00 0.00 67 1008.6
20260901041949 66 198 0.0 4.0 0.00 0.00 0.00 68 1008.6
20260901041450 66 232 0.0 4.0 0.00 0.00 0.00 67 1008.6
20260901040950 66 360 2.0 4.0 0.00 0.00 0.00 67 1008.4
20260901040449 66 360 3.0 4.0 0.00 0.00 0.00 67 1008.4
20260901035950 67 200 0.0 0.0 0.00 0.00 0.00 66 1008.4
20260901035450 67 231 0.0 3.0 0.00 0.00 0.00 65 1008.1
20260901034951 67 234 0.0 3.0 0.00 0.00 0.00 65 1008.1
20260901034449 68 294 1.0 3.0 0.00 0.00 0.00 64 1008.1
20260901033949 68 360 1.0 3.0 0.00 0.00 0.00 63 1007.8
20260901033449 68 241 1.0 3.0 0.00 0.00 0.00 62 1007.8
20260901032949 69 221 2.0 2.0 0.00 0.00 0.00 61 1007.8
20260901032449 69 213 2.0 2.0 0.00 0.00 0.00 60 1007.6
20260901031949 70 360 0.0 2.0 0.00 0.00 0.00 59 1007.7
20260901030949 71 271 1.0 2.0 0.00 0.00 0.00 58 1007.6
20260901030449 71 248 2.0 2.0 0.00 0.00 0.00 57 1007.6
20260901024949 72 136 0.0 6.0 0.00 0.00 0.00 55 1007.4
20260901024449 72 214 0.0 6.0 0.00 0.00 0.00 55 1007.4
20260901023948 73 225 0.0 1.0 0.00 0.00 0.00 55 1007.3
20260901023449 73 201 0.0 0.0 0.00 0.00 0.00 55 1007.3
20260901022948 74 201 0.0 0.0 0.00 0.00 0.00 53 1007.3
20260901022449 74 201 0.0 0.0 0.00 0.00 0.00 52 1007.2
20260901021948 74 201 0.0 0.0 0.00 0.00 0.00 51 1007.2
20260901021448 75 199 0.0 1.0 0.00 0.00 0.00 50 1007.2
20260901020949 75 199 0.0 3.0 0.00 0.00 0.00 49 1007.0
20260901020448 75 194 0.0 4.0 0.00 0.00 0.00 49 1007.0
20260901015948 76 237 1.0 4.0 0.00 0.00 0.00 48 1007.0
20260901015448 76 9 0.0 3.0 0.00 0.00 0.00 48 1006.9
20260901014448 77 169 0.0 3.0 0.00 0.00 0.00 47 1006.9
20260901013949 78 160 1.0 1.0 0.00 0.00 0.00 46 1006.8
20260901013449 79 99 0.0 1.0 0.00 0.00 0.00 45 1006.8
20260901012948 79 90 0.0 4.0 0.00 0.00 0.00 44 1006.8
20260901012448 80 42 1.0 4.0 0.00 0.00 0.00 44 1006.8
20260901011948 80 58 1.0 2.0 0.00 0.00 0.00 42 1006.8
20260901011449 81 59 0.0 4.0 0.00 0.00 0.00 42 1006.8
20260901010948 81 61 1.0 4.0 0.00 0.00 0.00 40 1006.8
20260901010448 82 59 0.0 2.0 0.00 0.00 0.00 39 1006.8
20260901005948 82 15 0.0 2.0 0.00 0.00 0.00 38 1006.8
20260901004948 83 209 2.0 7.0 0.00 0.00 0.00 38 1006.8
20260901003948 85 177 4.0 5.0 0.00 0.00 0.00 36 1006.8
20260901003448 85 159 3.0 3.0 0.00 0.00 0.00 37 1006.8
20260901002948 85 186 2.0 3.0 0.00 0.00 0.00 37 1006.8
20260901002448 85 216 0.0 4.0 0.00 0.00 0.00 36 1006.7
20260901001948 85 216 0.0 4.0 0.00 0.00 0.00 35 1006.7
20260901001448 86 207 1.0 3.0 0.00 0.00 0.00 35 1006.7
20260901000948 86 200 2.0 4.0 0.00 0.00 0.00 36 1006.6